Location: Bethune
(34.4150°N, 80.3490°W)
Time: 20:42:04
(UTC-04:00)

ISS - Visible Passes

Search period start: 19 April 2019 00:00
Search period end: 29 April 2019 00:00
Orbit: 408 x 410 km, 51.6° (Epoch: 20 April)

Date Brightness Start Highest point End Pass type
(mag) Time Alt. Az. Time Alt. Az. Time Alt. Az.
26 Apr -1.8 05:39:41 10° S 05:42:25 24° SE 05:45:09 10° ENE visible
27 Apr -1.1 04:50:44 11° SE 04:51:45 12° SE 04:53:07 10° ESE visible
28 Apr -3.8 05:34:55 19° SW 05:37:06 79° SE 05:40:25 10° NE visible
